Flag for U.S.A. Weather past 2 weeks in Lynchburg, Virginia, U.S.A.

Now
40 °F

Clear.


Feels Like: 40 °F
Forecast: 37 / 69 °F
Wind: No wind

Location: Lynchburg Regional Airport

Current Time: Mar 31, 2015 at 12:20:34 AM

Latest Report: Mar 30, 2015 at 11:54 PM


Visibility: 10 mi

Pressure: 30.02 "Hg

Humidity: 55%

Dew point: 25 °F

Location of LynchburgLocation

Historic Weather in Lynchburg — Graph

°F

Lynchburg temperature yesterday

Maximum temperature yesterday: 61 °F (at 2:54 PM)
Minimum temperature yesterday: 40 °F (at 5:54 AM)
Average temperature yesterday: 50 °F

Past Weeks' High & Low Weather Summary

 TemperatureHumidityPressure
High77 °F (Mar 16, 4:54 PM)100% (Mar 19, 10:54 PM)30.43 "Hg (Mar 19, 10:54 PM)
Low19 °F (Mar 29, 6:54 AM)13% (Mar 18, 5:54 PM)29.66 "Hg (Mar 26, 7:54 PM)
Average47 °F56%30.08 "Hg
* Reported Mar 15 10:54 PM — Mar 30 10:54 PM, Lynchburg, Weather by CustomWeather, © 2015

Note: Actual official high and low records may vary slightly from our data, if they occured in-between our weather recording intervals... More about our weather records

Advertising

Lynchburg weather history for previous 24 hours

 ConditionsComfort  
Time TempWeatherWind HumidityBarometerVisibility
10:54 PM
Mon, Mar 30
43 °FClear.3 mph45%30.03 "Hg10 mi
9:54 PM51 °FClear.No wind28%30.02 "Hg10 mi
8:54 PM53 °FClear.6 mph26%30.00 "Hg10 mi
7:54 PM56 °FSunny.10 mph24%29.96 "Hg10 mi
6:54 PM58 °FSunny.10 mph22%29.94 "Hg10 mi
5:54 PM60 °FSunny.13 mph20%29.93 "Hg10 mi
4:54 PM61 °FSunny.12 mph23%29.92 "Hg10 mi
3:54 PM61 °FSunny.12 mph25%29.92 "Hg10 mi
2:54 PM61 °FSunny.14 mph29%29.93 "Hg10 mi
1:54 PM58 °FPartly sunny.12 mph36%29.95 "Hg10 mi
12:54 PM57 °FBroken clouds.16 mph47%29.95 "Hg10 mi
11:54 AM53 °FMostly cloudy.9 mph55%29.98 "Hg10 mi
10:54 AM52 °FMostly cloudy.9 mph49%29.98 "Hg10 mi
9:54 AM47 °FBroken clouds.13 mph44%29.99 "Hg10 mi
8:54 AM44 °FPassing clouds.15 mph47%29.99 "Hg10 mi
7:54 AM42 °FPassing clouds.8 mph49%29.99 "Hg10 mi
6:54 AM41 °FPassing clouds.7 mph53%29.99 "Hg10 mi
5:54 AM40 °FOvercast.6 mph63%29.99 "Hg10 mi
4:54 AM43 °FOvercast.6 mph40%30.02 "Hg10 mi
3:54 AM43 °FOvercast.12 mph38%30.03 "Hg10 mi
2:54 AM42 °FPassing clouds.12 mph36%30.05 "Hg10 mi
1:54 AM42 °FClear.13 mph33%30.07 "Hg10 mi
12:54 AM42 °FClear.13 mph32%30.11 "Hg10 mi
Weather by CustomWeather, © 2015

See weather overviewHow to use our weather pages